When you browse on this site, cookies collect data to enhance your experience and personalize the content and advertising you see.
Visit our Privacy Policy to learn more. By continuing to use the site, you agree to this use of cookies and data.
  • In Spain
  • List of Countries
  • For 7 days
  • Water Temperature
  • Satellite Maps
  • Weather Map
  • Weather Widgets
  • user-avatar
    Login

    Hourly Weather Salzburg

    Today, 18 February, Monday

    Time Temperature Precipitation Wind Pressure Humidity
    00:00 -5°C° 0 mm 2 mps 628 mmHg 48%
    01:00 -5°C° 0 mm 2 mps 628 mmHg 46%
    02:00 -5°C° 0 mm 2 mps 628 mmHg 46%
    03:00 -6°C° 0 mm 2 mps 627 mmHg 46%
    04:00 -6°C° 0 mm 2 mps 627 mmHg 47%
    05:00 -6°C° 0 mm 2 mps 627 mmHg 47%
    06:00 -6°C° 0 mm 2 mps 627 mmHg 48%
    07:00 -6°C° 0 mm 2 mps 627 mmHg 47%
    08:00 -4°C° 0 mm 2 mps 627 mmHg 56%
    09:00 -2°C° 0 mm 2 mps 628 mmHg 65%
    10:00 +2°C° 0 mm 1 mps 628 mmHg 74%
    11:00 +3°C° 0 mm 1 mps 628 mmHg 79%
    12:00 +4°C° 0 mm 1 mps 628 mmHg 84%
    13:00 +5°C° 0 mm 1 mps 628 mmHg 87%
    14:00 +4°C° 0 mm 1 mps 627 mmHg 88%
    15:00 +4°C° 0 mm 1 mps 627 mmHg 90%
    16:00 +3°C° 0 mm 1 mps 626 mmHg 91%
    17:00 +2°C° 0 mm 1 mps 626 mmHg 85%
    18:00 -2°C° 0 mm 2 mps 626 mmHg 79%
    19:00 -4°C° 0 mm 2 mps 625 mmHg 73%
    20:00 -4°C° 0 mm 2 mps 625 mmHg 70%
    21:00 -5°C° 0 mm 2 mps 625 mmHg 66%
    22:00 -5°C° 0 mm 2 mps 625 mmHg 63%
    23:00 -5°C° 0 mm 2 mps 625 mmHg 62%

    Tomorrow, 19 February, Tuesday

    Time Temperature Precipitation Wind Pressure Humidity
    00:00 -5°C° 0 mm 2 mps 625 mmHg 60%
    01:00 -5°C° 0 mm 2 mps 625 mmHg 59%
    02:00 -6°C° 0 mm 2 mps 625 mmHg 59%
    03:00 -6°C° 0 mm 2 mps 625 mmHg 58%
    04:00 -4°C° 0 mm 1 mps 625 mmHg 58%
    05:00 -4°C° 0 mm 1 mps 625 mmHg 59%
    06:00 -4°C° 0 mm 1 mps 625 mmHg 61%
    07:00 -4°C° 0 mm 1 mps 625 mmHg 62%
    08:00 -3°C° 0 mm 1 mps 625 mmHg 68%
    09:00 -1°C° 0 mm 1 mps 626 mmHg 75%
    10:00 +1°C° 0 mm 1 mps 626 mmHg 81%
    11:00 +2°C° 0 mm 1 mps 626 mmHg 81%
    12:00 +1°C° 0 mm 0 mps 626 mmHg 82%
    13:00 +2°C° 0 mm 0 mps 626 mmHg 83%
    14:00 +1°C° 0 mm 0 mps 626 mmHg 85%
    15:00 +1°C° 0 mm 0 mps 626 mmHg 88%
    16:00 +1°C° 0 mm 0 mps 626 mmHg 90%
    17:00 0°C° 0 mm 1 mps 626 mmHg 89%
    18:00 -1°C° 0 mm 1 mps 625 mmHg 87%
    19:00 -3°C° 0 mm 1 mps 625 mmHg 85%
    20:00 -3°C° 0 mm 1 mps 625 mmHg 82%
    21:00 -4°C° 0 mm 1 mps 625 mmHg 80%
    22:00 -4°C° 0 mm 1 mps 625 mmHg 78%
    23:00 -4°C° 0 mm 1 mps 626 mmHg 77%

    Day after tomorrow, 20 February, Wednesday

    Time Temperature Precipitation Wind Pressure Humidity
    00:00 -4°C° 0 mm 1 mps 626 mmHg 76%
    01:00 -4°C° 0 mm 1 mps 626 mmHg 75%
    02:00 -4°C° 0 mm 1 mps 626 mmHg 75%
    03:00 -4°C° 0 mm 1 mps 626 mmHg 76%
    04:00 -4°C° 0 mm 1 mps 626 mmHg 76%
    05:00 -4°C° 0 mm 1 mps 626 mmHg 78%
    06:00 -4°C° 0 mm 1 mps 626 mmHg 79%
    07:00 -4°C° 0 mm 1 mps 627 mmHg 80%
    08:00 -2°C° 0 mm 1 mps 627 mmHg 81%
    09:00 -1°C° 0 mm 1 mps 628 mmHg 83%
    10:00 0°C° 0 mm 0 mps 629 mmHg 85%
    11:00 0°C° 0 mm 0 mps 629 mmHg 85%
    12:00 +1°C° 0 mm 0 mps 629 mmHg 86%
    13:00 +1°C° 0 mm 0 mps 629 mmHg 86%
    14:00 +1°C° 0 mm 0 mps 629 mmHg 88%
    15:00 +1°C° 0 mm 0 mps 629 mmHg 90%
    16:00 +1°C° 0 mm 0 mps 628 mmHg 92%
    17:00 0°C° 0 mm 0 mps 628 mmHg 92%
    18:00 -2°C° 0 mm 0 mps 628 mmHg 92%
    19:00 -3°C° 0 mm 0 mps 628 mmHg 92%
    20:00 -2°C° 0 mm 1 mps 629 mmHg 91%
    21:00 -2°C° 0 mm 1 mps 629 mmHg 90%
    22:00 -2°C° 0 mm 1 mps 629 mmHg 88%
    23:00 -2°C° 0 mm 1 mps 629 mmHg 86%

    21 February, Thursday

    Time Temperature Precipitation Wind Pressure Humidity
    00:00 -2°C° 0 mm 1 mps 630 mmHg 84%
    01:00 -2°C° 0 mm 1 mps 630 mmHg 82%
    02:00 -2°C° 0 mm 1 mps 630 mmHg 81%
    03:00 -2°C° 0 mm 1 mps 630 mmHg 80%
    04:00 -2°C° 0 mm 1 mps 629 mmHg 79%
    05:00 -3°C° 0 mm 1 mps 630 mmHg 78%
    06:00 -3°C° 0 mm 1 mps 630 mmHg 78%
    07:00 -3°C° 0 mm 1 mps 630 mmHg 77%
    08:00 -1°C° 0 mm 1 mps 630 mmHg 79%
    09:00 0°C° 0 mm 1 mps 631 mmHg 81%
    10:00 0°C° 0 mm 0 mps 632 mmHg 83%
    11:00 +2°C° 0 mm 1 mps 632 mmHg 83%
    12:00 +2°C° 0 mm 1 mps 632 mmHg 83%
    13:00 +3°C° 0 mm 1 mps 632 mmHg 83%
    14:00 +3°C° 0 mm 1 mps 632 mmHg 85%
    15:00 +2°C° 0 mm 1 mps 631 mmHg 88%
    16:00 +2°C° 0 mm 1 mps 631 mmHg 90%
    17:00 +1°C° 0 mm 1 mps 631 mmHg 89%
    18:00 +1°C° 0 mm 1 mps 632 mmHg 87%
    19:00 0°C° 0 mm 1 mps 632 mmHg 86%
    20:00 0°C° 0 mm 1 mps 632 mmHg 86%
    21:00 0°C° 0 mm 1 mps 632 mmHg 86%
    22:00 0°C° 0 mm 1 mps 633 mmHg 86%
    23:00 -1°C° 0 mm 1 mps 633 mmHg 87%

    22 February, Friday

    Time Temperature Precipitation Wind Pressure Humidity
    00:00 -2°C° 0 mm 1 mps 633 mmHg 87%
    01:00 -2°C° 0 mm 1 mps 632 mmHg 88%
    02:00 -2°C° 0 mm 1 mps 632 mmHg 89%
    03:00 -3°C° 0 mm 1 mps 632 mmHg 89%
    04:00 -3°C° 0 mm 1 mps 632 mmHg 90%
    05:00 -3°C° 0 mm 1 mps 633 mmHg 90%
    06:00 -2°C° 0 mm 1 mps 633 mmHg 90%
    07:00 -2°C° 0 mm 1 mps 633 mmHg 90%
    08:00 -1°C° 0.1 mm 1 mps 634 mmHg 90%
    09:00 0°C° 0.1 mm 1 mps 634 mmHg 90%
    10:00 0°C° 0.1 mm 1 mps 635 mmHg 90%
    11:00 +1°C° 0.1 mm 1 mps 635 mmHg 89%
    12:00 +1°C° 0.1 mm 1 mps 635 mmHg 89%
    13:00 +2°C° 0.1 mm 1 mps 635 mmHg 88%
    14:00 +1°C° 0.2 mm 1 mps 635 mmHg 90%
    15:00 +1°C° 0.2 mm 1 mps 635 mmHg 92%
    16:00 +1°C° 0.2 mm 1 mps 635 mmHg 93%
    17:00 0°C° 0.2 mm 1 mps 635 mmHg 94%
    18:00 0°C° 0.2 mm 1 mps 635 mmHg 95%
    19:00 -1°C° 0.2 mm 1 mps 636 mmHg 96%
    20:00 -1°C° 0.1 mm 1 mps 636 mmHg 96%
    21:00 -1°C° 0.1 mm 1 mps 636 mmHg 95%
    22:00 -1°C° 0.1 mm 1 mps 636 mmHg 95%
    23:00 -2°C° 0 mm 0 mps 636 mmHg 95%

    23 February, Saturday

    Time Temperature Precipitation Wind Pressure Humidity
    00:00 -3°C° 0 mm 0 mps 636 mmHg 94%
    01:00 -3°C° 0 mm 0 mps 636 mmHg 93%
    02:00 -3°C° 0 mm 0 mps 636 mmHg 93%
    03:00 -3°C° 0 mm 0 mps 636 mmHg 93%
    04:00 -2°C° 0 mm 1 mps 636 mmHg 92%
    05:00 -3°C° 0 mm 1 mps 636 mmHg 90%
    06:00 -3°C° 0 mm 1 mps 635 mmHg 88%
    07:00 -3°C° 0 mm 1 mps 635 mmHg 86%
    08:00 -2°C° 0 mm 1 mps 636 mmHg 85%
    09:00 0°C° 0 mm 1 mps 637 mmHg 84%
    10:00 +1°C° 0 mm 0 mps 637 mmHg 83%
    11:00 +2°C° 0 mm 1 mps 637 mmHg 82%
    12:00 +3°C° 0 mm 1 mps 637 mmHg 80%
    13:00 +4°C° 0 mm 1 mps 637 mmHg 79%
    14:00 +4°C° 0 mm 1 mps 637 mmHg 82%
    15:00 +2°C° 0 mm 0 mps 636 mmHg 84%
    16:00 +2°C° 0 mm 0 mps 636 mmHg 87%
    17:00 +1°C° 0 mm 0 mps 636 mmHg 85%
    18:00 0°C° 0 mm 0 mps 636 mmHg 83%
    19:00 -2°C° 0 mm 0 mps 635 mmHg 81%
    20:00 -1°C° 0 mm 1 mps 635 mmHg 79%
    21:00 -1°C° 0 mm 1 mps 635 mmHg 78%
    22:00 -1°C° 0 mm 1 mps 635 mmHg 76%
    23:00 -1°C° 0 mm 1 mps 635 mmHg 73%
    Show more